User: anonymous
Location: Muenchen
(48.1800°N, 11.5800°E)
Time: 17:34:47
(UTC+02:00)
Language:

Tiros 1 - Orbit

View from above orbital plane
View from above orbital plane
View from above satellite
View from above satellite

Ground track
Ground track

The orbit data is extracted from the following two-line orbital elements,

1 00029U 60002B   14260.06785588  .00000446  00000-0  99228-4 0  3205
2 00029 048.3786 137.0308 0024933 250.0703 109.7522 14.73304409908782
Epoch (UTC): 17 September 2014 01:37:42
Eccentricity: 0.0024933
inclination: 48.3786°
perigee height: 633 km
apogee height: 668 km
right ascension of ascending node: 137.0308°
argument of perigee: 250.0703°
revolutions per day: 14.73304409
mean anomaly at epoch: 109.7522°
orbit number at epoch: 90878

The dashed part of the orbit path shows where the satellite is in the earth's shadow,  

DLR